When you browse on this site, cookies collect data to enhance your experience and personalize the content and advertising you see.
Visit our Privacy Policy to learn more. By continuing to use the site, you agree to this use of cookies and data.
  • In France
  • List of Countries
  • For 7 days
  • Water Temperature
  • Satellite Maps
  • Weather Map
  • Weather Widgets
  • user-avatar
    Login

    Hourly Weather Bunratty

    Today, 23 May, Thursday

    Time Temperature Precipitation Wind Pressure Humidity
    00:00 +10°C° 0.5 mm 2 mps 756 mmHg 96%
    01:00 +10°C° 0.5 mm 2 mps 755 mmHg 97%
    02:00 +10°C° 0.5 mm 2 mps 755 mmHg 97%
    03:00 +10°C° 0.9 mm 2 mps 755 mmHg 97%
    04:00 +10°C° 0.9 mm 2 mps 755 mmHg 97%
    05:00 +12°C° 0 mm 1 mps 755 mmHg 98%
    06:00 +12°C° 0.4 mm 2 mps 755 mmHg 96%
    07:00 +12°C° 0.4 mm 2 mps 755 mmHg 95%
    08:00 +13°C° 0.4 mm 2 mps 755 mmHg 94%
    09:00 +13°C° 0.3 mm 2 mps 755 mmHg 93%
    10:00 +13°C° 0.3 mm 2 mps 755 mmHg 93%
    11:00 +14°C° 0.3 mm 2 mps 755 mmHg 92%
    12:00 +14°C° 0.1 mm 2 mps 756 mmHg 92%
    13:00 +15°C° 0.1 mm 2 mps 756 mmHg 91%
    14:00 +15°C° 0.1 mm 2 mps 756 mmHg 91%
    15:00 +15°C° 0 mm 2 mps 756 mmHg 90%
    16:00 +15°C° 0 mm 2 mps 756 mmHg 89%
    17:00 +16°C° 0 mm 2 mps 756 mmHg 87%
    18:00 +15°C° 0 mm 2 mps 756 mmHg 90%
    19:00 +14°C° 0 mm 2 mps 757 mmHg 93%
    20:00 +13°C° 0 mm 2 mps 757 mmHg 96%
    21:00 +13°C° 0 mm 2 mps 757 mmHg 97%
    22:00 +12°C° 0 mm 2 mps 757 mmHg 97%
    23:00 +12°C° 0 mm 1 mps 758 mmHg 98%

    Tomorrow, 24 May, Friday

    Time Temperature Precipitation Wind Pressure Humidity
    00:00 +12°C° 0 mm 1 mps 758 mmHg 98%
    01:00 +11°C° 0 mm 1 mps 758 mmHg 98%
    02:00 +11°C° 0 mm 1 mps 758 mmHg 98%
    03:00 +11°C° 0 mm 1 mps 758 mmHg 97%
    04:00 +12°C° 0 mm 1 mps 758 mmHg 97%
    05:00 +12°C° 0 mm 1 mps 759 mmHg 97%
    06:00 +13°C° 0 mm 2 mps 759 mmHg 90%
    07:00 +15°C° 0 mm 2 mps 759 mmHg 84%
    08:00 +16°C° 0 mm 3 mps 759 mmHg 78%
    09:00 +17°C° 0 mm 3 mps 759 mmHg 73%
    10:00 +18°C° 0 mm 3 mps 759 mmHg 69%
    11:00 +19°C° 0 mm 3 mps 760 mmHg 64%
    12:00 +19°C° 0 mm 3 mps 760 mmHg 64%
    13:00 +19°C° 0 mm 3 mps 760 mmHg 64%
    14:00 +19°C° 0 mm 4 mps 760 mmHg 65%
    15:00 +18°C° 0 mm 3 mps 760 mmHg 67%
    16:00 +18°C° 0 mm 3 mps 759 mmHg 70%
    17:00 +17°C° 0 mm 3 mps 759 mmHg 72%
    18:00 +16°C° 0 mm 2 mps 760 mmHg 78%
    19:00 +14°C° 0 mm 2 mps 760 mmHg 84%
    20:00 +13°C° 0 mm 1 mps 760 mmHg 90%
    21:00 +13°C° 0 mm 1 mps 760 mmHg 92%
    22:00 +13°C° 0 mm 1 mps 760 mmHg 93%
    23:00 +13°C° 0 mm 1 mps 760 mmHg 95%

    Day after tomorrow, 25 May, Saturday

    Time Temperature Precipitation Wind Pressure Humidity
    00:00 +13°C° 0 mm 1 mps 760 mmHg 95%
    01:00 +13°C° 0 mm 1 mps 760 mmHg 96%
    02:00 +13°C° 0 mm 1 mps 760 mmHg 97%
    03:00 +14°C° 0 mm 1 mps 760 mmHg 97%
    04:00 +14°C° 0 mm 1 mps 760 mmHg 97%
    05:00 +14°C° 0 mm 2 mps 760 mmHg 97%
    06:00 +15°C° 0 mm 2 mps 760 mmHg 92%
    07:00 +16°C° 0 mm 2 mps 760 mmHg 87%
    08:00 +17°C° 0 mm 2 mps 760 mmHg 82%
    09:00 +17°C° 0 mm 3 mps 760 mmHg 78%
    10:00 +18°C° 0 mm 3 mps 760 mmHg 74%
    11:00 +19°C° 0 mm 4 mps 760 mmHg 70%
    12:00 +19°C° 0 mm 4 mps 760 mmHg 72%
    13:00 +18°C° 0 mm 4 mps 760 mmHg 73%
    14:00 +18°C° 0 mm 3 mps 759 mmHg 75%
    15:00 +18°C° 0 mm 3 mps 759 mmHg 76%
    16:00 +17°C° 0 mm 3 mps 759 mmHg 77%
    17:00 +17°C° 0 mm 3 mps 759 mmHg 79%
    18:00 +16°C° 0 mm 2 mps 759 mmHg 84%
    19:00 +15°C° 0 mm 2 mps 759 mmHg 90%
    20:00 +14°C° 0 mm 1 mps 759 mmHg 95%
    21:00 +14°C° 0 mm 2 mps 758 mmHg 96%
    22:00 +14°C° 0 mm 2 mps 758 mmHg 96%
    23:00 +14°C° 0 mm 2 mps 758 mmHg 97%

    26 May, Sunday

    Time Temperature Precipitation Wind Pressure Humidity
    00:00 +14°C° 0.2 mm 2 mps 757 mmHg 97%
    01:00 +14°C° 0.2 mm 3 mps 757 mmHg 98%
    02:00 +14°C° 0.2 mm 3 mps 756 mmHg 98%
    03:00 +14°C° 0.3 mm 3 mps 756 mmHg 98%
    04:00 +14°C° 0.3 mm 3 mps 756 mmHg 98%
    05:00 +14°C° 0.3 mm 3 mps 756 mmHg 98%
    06:00 +13°C° 0.1 mm 4 mps 756 mmHg 95%
    07:00 +13°C° 0.1 mm 4 mps 756 mmHg 93%
    08:00 +13°C° 0.1 mm 5 mps 756 mmHg 90%
    09:00 +13°C° 0 mm 5 mps 756 mmHg 83%
    10:00 +14°C° 0 mm 6 mps 756 mmHg 77%
    11:00 +15°C° 0 mm 6 mps 757 mmHg 70%
    12:00 +15°C° 0 mm 7 mps 757 mmHg 69%
    13:00 +15°C° 0 mm 7 mps 757 mmHg 68%
    14:00 +15°C° 0 mm 7 mps 757 mmHg 67%
    15:00 +14°C° 0 mm 6 mps 756 mmHg 70%
    16:00 +14°C° 0 mm 6 mps 756 mmHg 72%
    17:00 +13°C° 0 mm 6 mps 756 mmHg 75%
    18:00 +11°C° 0.1 mm 6 mps 756 mmHg 79%
    19:00 +12°C° 0.1 mm 5 mps 756 mmHg 84%
    20:00 +10°C° 0.1 mm 5 mps 756 mmHg 89%
    21:00 +10°C° 0.1 mm 5 mps 755 mmHg 88%
    22:00 +10°C° 0.1 mm 5 mps 755 mmHg 88%
    23:00 +9°C° 0.1 mm 5 mps 755 mmHg 88%

    27 May, Monday

    Time Temperature Precipitation Wind Pressure Humidity
    00:00 +9°C° 0.2 mm 6 mps 754 mmHg 88%
    01:00 +9°C° 0.2 mm 6 mps 753 mmHg 87%
    02:00 +9°C° 0.2 mm 7 mps 753 mmHg 87%
    03:00 +9°C° 0.2 mm 6 mps 753 mmHg 87%
    04:00 +9°C° 0.2 mm 6 mps 752 mmHg 87%
    05:00 +9°C° 0.2 mm 6 mps 752 mmHg 87%
    06:00 +9°C° 0.2 mm 6 mps 752 mmHg 84%
    07:00 +10°C° 0.2 mm 7 mps 752 mmHg 81%
    08:00 +10°C° 0.2 mm 7 mps 752 mmHg 78%
    09:00 +11°C° 0.2 mm 7 mps 752 mmHg 78%
    10:00 +11°C° 0.2 mm 8 mps 752 mmHg 77%
    11:00 +11°C° 0.2 mm 8 mps 752 mmHg 76%
    12:00 +11°C° 0.2 mm 8 mps 752 mmHg 78%
    13:00 +11°C° 0.2 mm 8 mps 752 mmHg 79%
    14:00 +11°C° 0.2 mm 8 mps 752 mmHg 80%
    15:00 +11°C° 0 mm 8 mps 752 mmHg 75%
    16:00 +11°C° 0 mm 8 mps 753 mmHg 70%
    17:00 +12°C° 0 mm 8 mps 753 mmHg 65%
    18:00 +10°C° 0 mm 7 mps 754 mmHg 68%
    19:00 +9°C° 0 mm 6 mps 754 mmHg 71%
    20:00 +8°C° 0 mm 5 mps 755 mmHg 74%
    21:00 +8°C° 0 mm 5 mps 756 mmHg 75%
    22:00 +7°C° 0 mm 5 mps 756 mmHg 76%
    23:00 +7°C° 0 mm 5 mps 757 mmHg 77%

    28 May, Tuesday

    Time Temperature Precipitation Wind Pressure Humidity
    00:00 +6°C° 0 mm 5 mps 757 mmHg 77%
    01:00 +6°C° 0 mm 5 mps 758 mmHg 77%
    02:00 +6°C° 0 mm 5 mps 758 mmHg 77%
    03:00 +6°C° 0 mm 5 mps 758 mmHg 77%
    04:00 +7°C° 0 mm 5 mps 759 mmHg 77%
    05:00 +7°C° 0 mm 5 mps 759 mmHg 78%
    06:00 +8°C° 0 mm 5 mps 759 mmHg 73%
    07:00 +10°C° 0 mm 5 mps 760 mmHg 69%
    08:00 +11°C° 0 mm 6 mps 760 mmHg 64%
    09:00 +11°C° 0 mm 6 mps 761 mmHg 63%
    10:00 +11°C° 0 mm 6 mps 761 mmHg 63%
    11:00 +13°C° 0 mm 6 mps 761 mmHg 62%
    12:00 +13°C° 0 mm 6 mps 761 mmHg 61%
    13:00 +13°C° 0 mm 6 mps 761 mmHg 59%
    14:00 +13°C° 0 mm 6 mps 761 mmHg 58%
    15:00 +13°C° 0 mm 6 mps 761 mmHg 61%
    16:00 +11°C° 0 mm 6 mps 761 mmHg 64%
    17:00 +12°C° 0 mm 5 mps 761 mmHg 67%
    18:00 +11°C° 0 mm 4 mps 762 mmHg 72%
    19:00 +10°C° 0 mm 3 mps 762 mmHg 77%
    20:00 +9°C° 0 mm 2 mps 762 mmHg 82%
    21:00 +9°C° 0 mm 2 mps 762 mmHg 82%
    22:00 +9°C° 0 mm 2 mps 762 mmHg 81%
    23:00 +9°C° 0 mm 2 mps 762 mmHg 80%
    Show more